Hourly Weather Roundup
Issued by NWS Central Illinois

Home | Current Version | Previous Version | Text Only | Print | Product List | Glossary On
Versions: 1 2 3 4 5 6 7 8 9 10 11 12 13 14 15 16 17 18 19 20 21 22 23 24 25 26 27 28 29 30 31 32 33 34 35 36 37 38 39 40 41 42 43 44 45 46 47 48 49 50
878
NZUS43 KILX 280410
HWRILX

AREA WEATHER ROUNDUP
NATIONAL WEATHER SERVICE, LINCOLN IL
1100 PM CDT WED JUL 27 2016


CITY           SKY/WX    TMP DP  RH WIND       PRES   REMARKS
BLOOMINGTON    PTCLDY    75  70  84 CALM      29.97S
CHAMPAIGN      PTCLDY    74  70  87 E6        29.96F
DANVILLE       CLOUDY    72  71  99 CALM      29.94F FOG
DECATUR        MOCLDY    75  72  90 E3        29.95F
EFFINGHAM      MOCLDY    76  76 100 CALM      29.96S
FLORA          MOCLDY    77  76  95 S3        29.94S
GALESBURG      CLOUDY    73  70  92 CALM      29.94F
JACKSONVILLE   PTCLDY    77  74  91 SE6       29.93F
LACON          CLOUDY    76  70  83 SE5       29.93F
LAWRENCEVILLE  CLOUDY    77  74  90 S5        29.94S
LITCHFIELD     NOT AVBL
$$


CITY           SKY/WX    TMP DP  RH WIND       PRES   REMARKS
LINCOLN        CLEAR     76  74  93 SE3       29.94F
MACOMB         PTCLDY    71  68  92 SE3       29.96F
MATTOON        PTCLDY    75  71  87 CALM      29.95S
MT CARMEL AP   CLOUDY    76  73  93 CALM      29.94S
OLNEY-NOBLE AP PTCLDY    73  73 100 CALM      29.94S FOG
PARIS          CLOUDY    73  72  98 CALM      29.96F
PEORIA         CLOUDY    79  73  82 S7        29.94S HX  82
PONTIAC        NOT AVBL
RANTOUL        NOT AVBL
ROBINSON       MOCLDY    74  73  98 SW3       29.95R
SPRINGFIELD    PTCLDY    76  74  93 SE6       29.94F
TAYLORVILLE    MOCLDY    74  74  98 MISG      29.95F
$$

...REGIONAL REPORTS...


CITY           SKY/WX    TMP DP  RH WIND       PRES   REMARKS
CHICAGO O`HARE MOCLDY    77  65  66 VRB5      29.95S
KANKAKEE       CLEAR     73  69  87 CALM      29.97R
MOLINE         PTCLDY    76  69  79 CALM      29.92S
MOUNT STERLING TSTM      72  69  90 SE5       29.93F
MOUNT VERNON   CLOUDY    75  72  88 MISG      29.94R
PITTSFIELD     PTCLDY    78  77  96 E3        29.95R HX  80
QUINCY         PTCLDY    74  70  87 E7        29.93S
ROCKFORD       MOCLDY    73  68  84 CALM      29.95S
$$


CITY           SKY/WX    TMP DP  RH WIND       PRES   REMARKS
BURLINGTON     CLEAR     75  73  93 CALM      29.93S
CEDAR RAPIDS   CLEAR     69  69 100 CALM      29.94R
DES MOINES     PTCLDY    78  69  73 S3        29.95S HX  80
KIRKSVILLE     PTCLDY    73  69  87 CALM      29.96R
OTTUMWA        CLEAR     74  69  85 N6        29.94R
ST LOUIS       CLOUDY    84  73  69 S6        29.94R HX  90
$$


CITY           SKY/WX    TMP DP  RH WIND       PRES   REMARKS
TERRE HAUTE    CLOUDY    74  71  91 CALM      29.95S
EVANSVILLE     CLOUDY    75  74  96 CALM      29.94F
INDIANAPOLIS   CLOUDY    80  65  59 NE6       29.95F HX  82
LAFAYETTE      CLOUDY    70  68  93 CALM      29.95F
MADISON        CLOUDY    76  67  73 S6        29.93F
MILWAUKEE      MOCLDY    74  69  85 SE5       29.95F
$$






USA.gov is the U.S. government's official web portal to all federal, state and local government web resources and services.